User: anonymous   Login
Location: Betz
(49.1556°N, 2.9558°E)
Time: 20:45:12
(UTC+00:00)
Language:

MetOp-B - Orbit

View from above orbital plane
View from above orbital plane
View from above satellite
View from above satellite

Ground track
Ground track

The orbit data is extracted from the following two-line orbital elements,

1 38771U 12049A   19324.92638889 -.00000016 +00000-0 +12823-4 0  9992
2 38771 098.7236 022.0995 0000467 169.7831 172.4045 14.21479126372251
Epoch (UTC): 20 November 2019 22:14:00
Eccentricity: 0.0000467
inclination: 98.7236°
perigee height: 820 km
apogee height: 820 km
right ascension of ascending node: 22.0995°
argument of perigee: 169.7831°
revolutions per day: 14.21479126
mean anomaly at epoch: 172.4045°
orbit number at epoch: 37225

The dashed part of the orbit path shows where the satellite is in the earth's shadow,  

DLR